Voltar ao catálogo

STARLINK-6043

AtivoComunicaçõesVLEO
NORAD 56464·PAYLOAD·🇺🇸 United States

Lançado May 10, 2023 de Vandenberg Space Force Base

Loading…

Próximas Passagens (próximas 24 horas)

TLE

AtualizadoSource: CelesTrak SupGP

Época: Sep 15, 2026, 01:59 UTC

1 56464C 23064S   26258.08312500 -.00018054  00000+0 -15133-2 0  2584
2 56464  70.0033  26.8447 0003189 269.9822 225.0837 14.98331993    18

Acompanhe STARLINK-6043 em tempo real com AllMySat

Download on the App Store